User: anonymous   Login
Location: Brno
(49.2000°N, 16.6330°E)
Time: 17:51:58
(UTC+02:00)
Language:

Cosmos 332 Rocket - Orbit

View from above orbital plane
View from above orbital plane
View from above satellite
View from above satellite

Ground track
Ground track

The orbit data is extracted from the following two-line orbital elements,

1 04370U 70028B   15215.73560740  .00000191  00000-0  46403-4 0  9999
2 04370 074.0414 312.5375 0015028 041.0457 319.1837 14.59594377912254
Epoch (UTC): 03 August 2015 17:39:16
Eccentricity: 0.0015028
inclination: 74.0414°
perigee height: 684 km
apogee height: 705 km
right ascension of ascending node: 312.5375°
argument of perigee: 41.0457°
revolutions per day: 14.59594377
mean anomaly at epoch: 319.1837°
orbit number at epoch: 91225

The dashed part of the orbit path shows where the satellite is in the earth's shadow,  

DLR